EDT,Max TemperatureF,Mean TemperatureF,Min TemperatureF,Max Dew PointF,MeanDew PointF,Min DewpointF,Max Humidity, Mean Humidity, Min Humidity, Max Sea Level PressureIn, Mean Sea Level PressureIn, Min Sea Level PressureIn, Max VisibilityMiles, Mean VisibilityMiles, Min VisibilityMiles, Max Wind SpeedMPH, Mean Wind SpeedMPH, Max Gust SpeedMPH,PrecipitationIn, CloudCover, Events, WindDirDegrees
2013-7-1,79,74,69,73,70,67,95,87,69,30.01,29.94,29.87,10,9,2,16,5,25,0.61,7,Rain,172
2013-7-2,75,73,71,71,70,69,94,92,85,30.22,30.13,30.02,10,9,5,10,6,17,0.19,7,Rain,172
2013-7-3,84,78,72,72,71,70,94,86,61,30.27,30.23,30.18,10,9,1,12,6,18,0.67,5,Rain,167
2013-7-4,86,79,72,72,70,65,94,77,48,30.31,30.26,30.22,10,9,4,10,6,17,0.00,4,,164
2013-7-5,87,78,70,72,70,67,95,76,52,30.30,30.25,30.19,10,9,2,10,5,10,0.00,3,,179
2013-7-6,85,78,72,72,70,67,94,75,55,30.28,30.22,30.15,10,10,4,10,5,,0.00,4,,194
2013-7-7,86,77,68,74,70,67,94,78,59,30.21,30.16,30.08,10,10,4,14,6,18,0.00,3,,207
2013-7-8,85,78,70,72,69,65,95,80,50,30.20,30.16,30.10,10,9,2,9,3,,1.44,3,Rain,212
2013-7-9,85,78,71,73,71,69,94,83,60,30.18,30.14,30.08,10,9,4,13,5,17,0.00,3,Rain,203
2013-7-10,86,79,72,73,71,68,93,79,60,30.12,30.04,29.96,10,9,5,14,9,30,0.00,4,Rain,203
2013-7-11,78,74,71,72,71,69,95,91,80,30.00,29.95,29.91,10,8,0,13,5,17,1.56,6,Rain,186
2013-7-12,73,70,67,70,68,65,95,91,80,30.05,29.97,29.90,10,8,2,8,4,,0.13,7,Rain,16
2013-7-13,80,74,68,74,70,67,95,91,79,30.22,30.13,30.04,10,7,1,8,4,17,0.57,5,Rain,65
2013-7-14,84,76,68,73,70,67,96,81,56,30.34,30.29,30.23,10,8,2,15,4,21,0.01,3,Rain,93
2013-7-15,86,77,68,74,69,64,96,77,48,30.35,30.31,30.27,10,8,0,7,0,,0.00,2,Fog,25
2013-7-16,91,80,70,74,70,68,95,73,49,30.29,30.25,30.20,10,10,5,5,1,,0.00,1,,278
2013-7-17,89,82,74,77,72,66,95,73,46,30.25,30.20,30.13,10,8,2,7,1,,0.00,2,,24
2013-7-18,90,82,73,75,73,69,95,75,49,30.17,30.13,30.06,10,7,2,6,1,,0.00,2,,209
2013-7-19,88,80,73,74,72,70,94,75,54,30.11,30.06,30.00,10,8,2,14,7,17,0.00,1,,206
2013-7-20,86,80,73,73,71,70,89,77,60,30.04,29.99,29.93,10,10,10,16,9,21,0.00,3,,210
2013-7-21,86,79,72,72,71,70,95,82,59,30.00,29.97,29.92,10,10,3,10,7,18,0.08,4,Rain,202
2013-7-22,86,78,70,73,71,69,96,82,58,29.97,29.91,29.84,10,7,0,10,2,16,0.00,4,Fog-Rain,214
2013-7-23,86,79,72,72,70,66,92,74,52,29.86,29.79,29.74,10,10,5,10,7,16,0.00,2,,237
2013-7-24,88,79,70,71,68,62,92,72,40,29.88,29.79,29.74,10,9,5,9,4,,0.00,1,,275
2013-7-25,78,72,65,68,64,62,93,79,60,30.06,29.95,29.87,10,10,7,9,4,,0.01,5,Rain,12
2013-7-26,81,71,61,64,61,55,95,70,44,30.13,30.08,30.04,10,10,5,6,1,,0.00,2,,120
2013-7-27,83,74,66,68,66,62,94,78,52,30.08,30.02,29.95,10,8,2,9,5,,0.05,2,Rain,175
2013-7-28,84,76,68,71,68,64,96,79,51,30.01,29.97,29.94,10,8,3,9,3,,0.01,3,Rain,221
2013-7-29,83,74,66,69,63,58,94,69,42,30.18,30.10,30.01,10,9,2,10,4,18,0.00,2,Rain,330
2013-7-30,84,72,60,68,61,56,91,70,43,30.25,30.20,30.16,10,10,10,5,1,,0.00,1,,357
2013-7-31,80,74,68,70,67,63,93,81,60,30.18,30.11,30.03,10,9,5,12,2,,0.03,4,Rain,149